EW2348 Weather Reports


Display with metric or nautical units.
time (UTC)temp
F
wind
direction
speed
MPH
gust
MPH
rain 1hr
in
rain 24hr
in
rain mn
in
humidity
%
barometer
mb
20180421185628 63 316 2.0 6.0 0.00 0.00 0.00 17 1028.4
20180421185529 62 324 2.0 6.0 0.00 0.00 0.00 18 1028.3
20180421185429 63 325 1.0 6.0 0.00 0.00 0.00 17 1028.4
20180421185329 62 320 2.0 6.0 0.00 0.00 0.00 19 1028.3
20180421185229 63 315 1.0 6.0 0.00 0.00 0.00 18 1028.4
20180421185129 62 315 3.0 6.0 0.00 0.00 0.00 18 1028.4
20180421185028 63 318 4.0 6.0 0.00 0.00 0.00 17 1028.4
20180421184929 64 308 3.0 6.0 0.00 0.00 0.00 18 1028.5
20180421184729 62 312 3.0 6.0 0.00 0.00 0.00 18 1028.2
20180421184629 62 314 3.0 6.0 0.00 0.00 0.00 17 1028.5
20180421184429 62 313 2.0 5.0 0.00 0.00 0.00 18 1028.4
20180421184328 62 310 2.0 5.0 0.00 0.00 0.00 17 1028.5
20180421184029 64 305 2.0 5.0 0.00 0.00 0.00 17 1028.4
20180421183929 64 312 1.0 5.0 0.00 0.00 0.00 18 1028.5
20180421183429 64 278 3.0 5.0 0.00 0.00 0.00 21 1028.6
20180421183329 64 275 3.0 5.0 0.00 0.00 0.00 24 1028.6
20180421183229 64 271 3.0 6.0 0.00 0.00 0.00 17 1028.4
20180421183129 63 270 1.0 6.0 0.00 0.00 0.00 17 1028.6
20180421182828 63 264 3.0 7.0 0.00 0.00 0.00 18 1028.6
20180421182728 62 269 3.0 7.0 0.00 0.00 0.00 18 1028.7
20180421182628 63 276 3.0 7.0 0.00 0.00 0.00 18 1028.8
20180421182329 62 281 4.0 7.0 0.00 0.00 0.00 19 1028.7
20180421182229 64 291 4.0 7.0 0.00 0.00 0.00 20 1028.6
20180421182129 63 307 1.0 7.0 0.00 0.00 0.00 18 1028.7
20180421181928 63 337 4.0 5.0 0.00 0.00 0.00 21 1028.6
20180421181729 62 6 1.0 5.0 0.00 0.00 0.00 20 1028.8
20180421181629 63 342 3.0 5.0 0.00 0.00 0.00 20 1028.9
20180421181429 61 299 1.0 5.0 0.00 0.00 0.00 21 1028.9
20180421181128 61 281 1.0 5.0 0.00 0.00 0.00 19 1028.9
20180421181028 62 281 2.0 5.0 0.00 0.00 0.00 21 1028.7
20180421180829 62 275 3.0 5.0 0.00 0.00 0.00 23 1028.9
20180421180729 61 273 2.0 5.0 0.00 0.00 0.00 20 1028.9
20180421180328 61 282 2.0 8.0 0.00 0.00 0.00 20 1029.0
20180421180229 61 290 2.0 8.0 0.00 0.00 0.00 20 1028.9
20180421180129 61 293 2.0 8.0 0.00 0.00 0.00 20 1029.0
20180421175829 61 300 4.0 8.0 0.00 0.00 0.00 22 1028.9
20180421175729 60 296 2.0 8.0 0.00 0.00 0.00 20 1028.9
20180421175628 62 348 5.0 8.0 0.00 0.00 0.00 20 1028.9
20180421175529 62 63 4.0 8.0 0.00 0.00 0.00 21 1028.9
20180421175429 63 86 6.0 8.0 0.00 0.00 0.00 21 1028.9
20180421175329 63 94 5.0 8.0 0.00 0.00 0.00 21 1029.0
20180421175229 61 107 1.0 8.0 0.00 0.00 0.00 22 1029.0
20180421175129 61 111 1.0 8.0 0.00 0.00 0.00 22 1029.2
20180421174828 60 38 3.0 9.0 0.00 0.00 0.00 23 1029.1
20180421174728 59 351 4.0 9.0 0.00 0.00 0.00 23 1029.1
20180421174628 60 323 5.0 9.0 0.00 0.00 0.00 23 1029.2
20180421174529 61 300 5.0 9.0 0.00 0.00 0.00 22 1029.1
20180421174329 61 292 1.0 9.0 0.00 0.00 0.00 21 1029.1
20180421173928 60 287 5.0 9.0 0.00 0.00 0.00 21 1029.2
20180421173629 61 292 3.0 9.0 0.00 0.00 0.00 21 1029.2
20180421173529 61 295 3.0 9.0 0.00 0.00 0.00 22 1029.2
20180421173228 60 304 1.0 9.0 0.00 0.00 0.00 22 1029.5
20180421173129 60 305 1.0 9.0 0.00 0.00 0.00 23 1029.5
20180421172929 60 320 2.0 9.0 0.00 0.00 0.00 23 1029.4
20180421172729 61 317 5.0 10.0 0.00 0.00 0.00 23 1029.4
20180421172428 60 343 2.0 10.0 0.00 0.00 0.00 23 1029.4
20180421172329 61 3 4.0 10.0 0.00 0.00 0.00 23 1029.4
20180421172229 60 18 3.0 10.0 0.00 0.00 0.00 23 1029.4
20180421172129 60 35 3.0 10.0 0.00 0.00 0.00 23 1029.5
20180421171928 60 54 5.0 10.0 0.00 0.00 0.00 23 1029.4
20180421171829 60 64 5.0 10.0 0.00 0.00 0.00 23 1029.5
20180421171728 58 67 2.0 6.0 0.00 0.00 0.00 24 1029.5
20180421171429 59 42 3.0 6.0 0.00 0.00 0.00 24 1029.5
20180421171129 60 338 3.0 6.0 0.00 0.00 0.00 24 1029.7
20180421170928 62 306 2.0 6.0 0.00 0.00 0.00 22 1029.8
20180421170728 60 281 2.0 6.0 0.00 0.00 0.00 23 1029.4
20180421170629 61 278 3.0 6.0 0.00 0.00 0.00 21 1029.6
20180421170329 59 194 1.0 6.0 0.00 0.00 0.00 20 1029.7
20180421170229 59 201 2.0 6.0 0.00 0.00 0.00 21 1029.5
20180421170128 61 28 5.0 7.0 0.00 0.00 0.00 22 1029.6
20180421165829 60 359 3.0 7.0 0.00 0.00 0.00 25 1029.8
20180421165328 58 323 1.0 8.0 0.00 0.00 0.00 23 1029.7
20180421165228 58 332 4.0 8.0 0.00 0.00 0.00 24 1029.7
20180421165129 59 327 6.0 8.0 0.00 0.00 0.00 23 1029.5
20180421165029 61 334 5.0 8.0 0.00 0.00 0.00 25 1029.6
20180421164929 60 346 3.0 8.0 0.00 0.00 0.00 24 1029.6
20180421164829 60 28 4.0 8.0 0.00 0.00 0.00 23 1029.4
20180421164329 61 48 3.0 9.0 0.00 0.00 0.00 26 1029.9
20180421164229 60 33 3.0 9.0 0.00 0.00 0.00 28 1029.9
20180421163929 56 44 4.0 9.0 0.00 0.00 0.00 25 1029.7
20180421163828 59 22 5.0 9.0 0.00 0.00 0.00 25 1029.7
20180421163529 58 357 3.0 9.0 0.00 0.00 0.00 24 1029.9
20180421163229 58 335 3.0 8.0 0.00 0.00 0.00 25 1029.9
20180421163128 60 322 2.0 8.0 0.00 0.00 0.00 27 1030.1
20180421163029 59 323 1.0 8.0 0.00 0.00 0.00 24 1029.9
20180421162829 59 322 5.0 8.0 0.00 0.00 0.00 23 1030.1
20180421162729 58 329 1.0 8.0 0.00 0.00 0.00 24 1029.9
20180421162529 58 318 3.0 8.0 0.00 0.00 0.00 23 1030.1
20180421162328 57 320 3.0 9.0 0.00 0.00 0.00 23 1029.9
20180421162229 58 327 5.0 9.0 0.00 0.00 0.00 24 1030.0
20180421162129 59 333 5.0 9.0 0.00 0.00 0.00 23 1030.0
20180421162029 58 336 3.0 9.0 0.00 0.00 0.00 23 1030.0
20180421161829 58 345 5.0 9.0 0.00 0.00 0.00 24 1029.8
20180421161728 58 352 4.0 9.0 0.00 0.00 0.00 24 1029.9
20180421161628 57 354 1.0 9.0 0.00 0.00 0.00 23 1030.0
20180421161529 58 359 3.0 9.0 0.00 0.00 0.00 24 1029.9
20180421161429 58 3 5.0 9.0 0.00 0.00 0.00 24 1030.0
20180421161128 58 334 3.0 5.0 0.00 0.00 0.00 24 1030.1
20180421161028 58 310 1.0 5.0 0.00 0.00 0.00 23 1029.9
20180421160928 58 297 3.0 5.0 0.00 0.00 0.00 23 1030.0
20180421160529 58 265 1.0 7.0 0.00 0.00 0.00 23 1030.1
20180421160329 58 243 1.0 7.0 0.00 0.00 0.00 23 1030.0
20180421155629 58 318 1.0 7.0 0.00 0.00 0.00 24 1030.1
20180421155428 57 323 1.0 8.0 0.00 0.00 0.00 24 1030.3
20180421155328 57 313 3.0 8.0 0.00 0.00 0.00 25 1030.3
20180421154929 57 322 2.0 8.0 0.00 0.00 0.00 26 1030.3
20180421154729 56 338 3.0 8.0 0.00 0.00 0.00 25 1030.3
20180421154629 56 354 4.0 8.0 0.00 0.00 0.00 25 1030.3
20180421154329 56 355 4.0 7.0 0.00 0.00 0.00 25 1030.3
20180421154229 56 3 4.0 7.0 0.00 0.00 0.00 25 1030.3
20180421154029 56 4 3.0 7.0 0.00 0.00 0.00 28 1030.4
20180421153529 57 307 2.0 9.0 0.00 0.00 0.00 26 1030.5
20180421153429 57 309 2.0 9.0 0.00 0.00 0.00 25 1030.4
20180421153329 56 312 2.0 9.0 0.00 0.00 0.00 26 1030.5
20180421153229 56 305 3.0 9.0 0.00 0.00 0.00 26 1030.5
20180421153128 56 301 2.0 9.0 0.00 0.00 0.00 25 1030.5
20180421152829 58 309 6.0 9.0 0.00 0.00 0.00 26 1030.4
20180421152429 57 290 2.0 6.0 0.00 0.00 0.00 27 1030.6
20180421152329 55 274 1.0 6.0 0.00 0.00 0.00 22 1030.5
20180421152129 57 270 4.0 7.0 0.00 0.00 0.00 26 1030.5
20180421152029 57 268 2.0 7.0 0.00 0.00 0.00 27 1030.6
20180421151728 56 268 2.0 9.0 0.00 0.00 0.00 25 1030.5
20180421151628 56 267 2.0 9.0 0.00 0.00 0.00 25 1030.7
20180421151529 55 270 3.0 9.0 0.00 0.00 0.00 25 1030.5
20180421151429 55 276 3.0 9.0 0.00 0.00 0.00 23 1030.6
20180421151229 54 295 2.0 9.0 0.00 0.00 0.00 22 1030.5
20180421151129 54 296 3.0 9.0 0.00 0.00 0.00 22 1030.8
20180421150829 56 317 3.0 9.0 0.00 0.00 0.00 25 1030.6
20180421150729 55 315 3.0 9.0 0.00 0.00 0.00 23 1030.6
20180421150629 54 309 3.0 9.0 0.00 0.00 0.00 22 1030.7
20180421150428 54 302 3.0 9.0 0.00 0.00 0.00 23 1030.7
20180421150328 55 296 4.0 7.0 0.00 0.00 0.00 23 1030.6
20180421150128 56 307 3.0 7.0 0.00 0.00 0.00 27 1030.8
20180421145929 55 317 1.0 5.0 0.00 0.00 0.00 26 1030.7
20180421145829 55 300 2.0 5.0 0.00 0.00 0.00 24 1030.6
20180421145729 56 296 3.0 5.0 0.00 0.00 0.00 26 1030.7
20180421145628 55 313 2.0 5.0 0.00 0.00 0.00 24 1030.7
20180421145528 56 312 3.0 5.0 0.00 0.00 0.00 26 1030.8
20180421145229 54 320 1.0 8.0 0.00 0.00 0.00 24 1030.8
20180421145129 54 308 3.0 8.0 0.00 0.00 0.00 24 1030.7
20180421145029 54 294 3.0 8.0 0.00 0.00 0.00 26 1030.8
20180421144828 54 293 3.0 8.0 0.00 0.00 0.00 24 1031.0
20180421144529 54 289 2.0 8.0 0.00 0.00 0.00 24 1030.9
20180421144229 54 281 3.0 7.0 0.00 0.00 0.00 24 1030.8
20180421144128 54 288 3.0 6.0 0.00 0.00 0.00 25 1031.0
20180421144029 56 299 3.0 6.0 0.00 0.00 0.00 29 1031.0
20180421143829 55 315 1.0 7.0 0.00 0.00 0.00 26 1030.9
20180421143729 54 316 2.0 7.0 0.00 0.00 0.00 25 1031.0
20180421143629 54 320 4.0 7.0 0.00 0.00 0.00 25 1030.9
20180421143529 54 328 3.0 7.0 0.00 0.00 0.00 26 1031.0
20180421143328 54 339 1.0 7.0 0.00 0.00 0.00 26 1031.1
20180421143029 53 340 1.0 7.0 0.00 0.00 0.00 27 1031.3
20180421142929 52 345 3.0 7.0 0.00 0.00 0.00 26 1031.1
20180421142528 54 332 3.0 9.0 0.00 0.00 0.00 25 1030.9
20180421142029 52 322 3.0 9.0 0.00 0.00 0.00 25 1031.1
20180421141928 52 310 2.0 9.0 0.00 0.00 0.00 25 1031.2
20180421141629 52 296 4.0 7.0 0.00 0.00 0.00 25 1031.2
20180421141529 53 305 3.0 7.0 0.00 0.00 0.00 26 1031.2
20180421141429 53 304 4.0 7.0 0.00 0.00 0.00 25 1031.3
20180421141128 52 301 2.0 7.0 0.00 0.00 0.00 27 1031.4
20180421141028 52 300 3.0 7.0 0.00 0.00 0.00 27 1031.4
20180421140429 52 347 1.0 6.0 0.00 0.00 0.00 29 1031.3
20180421140328 52 341 1.0 6.0 0.00 0.00 0.00 29 1031.2
20180421140029 52 332 1.0 7.0 0.00 0.00 0.00 29 1031.3
20180421135929 52 322 1.0 7.0 0.00 0.00 0.00 31 1031.0
20180421135829 51 311 3.0 7.0 0.00 0.00 0.00 33 1031.3
20180421135729 50 305 2.0 7.0 0.00 0.00 0.00 31 1031.3
20180421135628 51 305 3.0 7.0 0.00 0.00 0.00 31 1031.3
20180421135428 51 305 4.0 7.0 0.00 0.00 0.00 31 1031.4
20180421135329 50 298 5.0 7.0 0.00 0.00 0.00 31 1031.2
20180421135229 49 285 3.0 7.0 0.00 0.00 0.00 31 1031.1
20180421134928 50 306 4.0 6.0 0.00 0.00 0.00 31 1031.3
20180421134729 51 304 3.0 7.0 0.00 0.00 0.00 31 1031.1
20180421134629 52 296 3.0 7.0 0.00 0.00 0.00 30 1031.4
20180421134428 51 294 2.0 7.0 0.00 0.00 0.00 32 1031.3
20180421134328 51 297 2.0 7.0 0.00 0.00 0.00 33 1031.3
20180421134228 52 297 3.0 7.0 0.00 0.00 0.00 32 1031.3
20180421133829 50 310 2.0 7.0 0.00 0.00 0.00 33 1031.2
20180421133728 50 312 4.0 7.0 0.00 0.00 0.00 33 1031.2
20180421133628 50 316 4.0 7.0 0.00 0.00 0.00 34 1031.3
20180421133528 51 317 2.0 8.0 0.00 0.00 0.00 35 1031.2
20180421133428 50 325 1.0 8.0 0.00 0.00 0.00 35 1031.0
20180421133329 50 332 5.0 8.0 0.00 0.00 0.00 35 1031.1
20180421133229 50 337 1.0 8.0 0.00 0.00 0.00 36 1031.2
20180421132928 49 340 4.0 8.0 0.00 0.00 0.00 36 1030.9
20180421132628 49 329 3.0 11.0 0.00 0.00 0.00 35 1031.3
20180421132229 50 320 2.0 11.0 0.00 0.00 0.00 38 1031.2
20180421132128 49 325 3.0 11.0 0.00 0.00 0.00 37 1031.0
20180421132028 49 322 5.0 11.0 0.00 0.00 0.00 38 1031.0
20180421131729 48 323 6.0 11.0 0.00 0.00 0.00 38 1031.1
20180421131629 48 336 7.0 9.0 0.00 0.00 0.00 38 1030.8
20180421131529 51 334 3.0 7.0 0.00 0.00 0.00 40 1030.7
20180421131428 51 330 1.0 6.0 0.00 0.00 0.00 40 1030.8
20180421131029 48 331 3.0 6.0 0.00 0.00 0.00 44 1030.8
20180421130929 47 335 3.0 6.0 0.00 0.00 0.00 44 1030.9
20180421130828 46 339 2.0 6.0 0.00 0.00 0.00 43 1030.9
20180421130728 46 334 2.0 5.0 0.00 0.00 0.00 42 1031.1
20180421130628 45 329 2.0 5.0 0.00 0.00 0.00 42 1030.9
20180421130529 45 331 3.0 5.0 0.00 0.00 0.00 43 1031.1
20180421130429 45 328 2.0 5.0 0.00 0.00 0.00 43 1031.2
20180421130128 45 335 3.0 7.0 0.00 0.00 0.00 42 1031.3
20180421125928 46 332 3.0 7.0 0.00 0.00 0.00 43 1031.3
20180421125829 46 329 1.0 8.0 0.00 0.00 0.00 42 1031.4
20180421125729 45 333 1.0 8.0 0.00 0.00 0.00 42 1031.2
20180421125629 45 334 1.0 8.0 0.00 0.00 0.00 41 1031.1
20180421125428 45 336 4.0 8.0 0.00 0.00 0.00 42 1031.1
20180421125328 45 340 4.0 8.0 0.00 0.00 0.00 42 1031.1
20180421125029 45 337 4.0 8.0 0.00 0.00 0.00 41 1031.4
20180421124929 45 334 5.0 9.0 0.00 0.00 0.00 41 1030.9
20180421124829 45 333 5.0 9.0 0.00 0.00 0.00 41 1031.1
20180421124729 46 333 3.0 9.0 0.00 0.00 0.00 41 1031.2
20180421124429 47 332 3.0 9.0 0.00 0.00 0.00 41 1031.2
20180421124329 47 330 3.0 9.0 0.00 0.00 0.00 40 1031.2
20180421124128 47 331 3.0 9.0 0.00 0.00 0.00 40 1031.2
20180421124028 46 329 5.0 9.0 0.00 0.00 0.00 41 1031.1
20180421123729 47 326 5.0 8.0 0.00 0.00 0.00 40 1031.1
20180421123629 47 330 4.0 8.0 0.00 0.00 0.00 41 1031.1
20180421123528 47 332 3.0 8.0 0.00 0.00 0.00 41 1031.0
20180421123428 46 325 3.0 8.0 0.00 0.00 0.00 41 1031.1
20180421123129 46 326 3.0 7.0 0.00 0.00 0.00 42 1031.4
20180421122828 46 331 2.0 7.0 0.00 0.00 0.00 43 1031.3
20180421122728 45 328 3.0 7.0 0.00 0.00 0.00 42 1031.1
20180421122629 45 322 4.0 7.0 0.00 0.00 0.00 42 1031.1
20180421122429 44 318 2.0 7.0 0.00 0.00 0.00 43 1031.1
20180421122329 45 322 3.0 7.0 0.00 0.00 0.00 43 1030.9
20180421122028 46 283 3.0 6.0 0.00 0.00 0.00 42 1031.1
20180421121928 46 281 3.0 6.0 0.00 0.00 0.00 43 1031.0
20180421121828 46 282 2.0 6.0 0.00 0.00 0.00 44 1031.2
20180421121529 45 277 2.0 5.0 0.00 0.00 0.00 43 1031.2
20180421121328 46 275 2.0 5.0 0.00 0.00 0.00 44 1031.1
20180421121228 45 281 1.0 5.0 0.00 0.00 0.00 44 1031.0
20180421121128 45 282 3.0 5.0 0.00 0.00 0.00 44 1031.1
20180421121028 45 286 3.0 5.0 0.00 0.00 0.00 44 1031.0
20180421120929 44 284 2.0 5.0 0.00 0.00 0.00 45 1030.9
20180421120829 44 283 3.0 5.0 0.00 0.00 0.00 45 1031.1
20180421120628 44 280 2.0 4.0 0.00 0.00 0.00 44 1031.0
20180421120528 44 281 2.0 4.0 0.00 0.00 0.00 44 1031.2
20180421120428 44 285 2.0 5.0 0.00 0.00 0.00 44 1030.9
20180421120129 44 306 2.0 5.0 0.00 0.00 0.00 44 1030.8
20180421115929 44 316 2.0 5.0 0.00 0.00 0.00 44 1031.1
20180421115828 45 311 1.0 5.0 0.00 0.00 0.00 43 1031.1
20180421115729 45 315 1.0 5.0 0.00 0.00 0.00 43 1031.0
20180421115529 44 325 2.0 5.0 0.00 0.00 0.00 44 1031.1
20180421115429 44 325 3.0 5.0 0.00 0.00 0.00 44 1031.1
20180421115228 44 319 3.0 5.0 0.00 0.00 0.00 44 1031.2
20180421115028 45 302 3.0 5.0 0.00 0.00 0.00 43 1031.0
20180421114729 46 313 2.0 3.0 0.00 0.00 0.00 43 1031.0
20180421114528 45 308 1.0 3.0 0.00 0.00 0.00 43 1031.1
20180421114428 45 313 1.0 3.0 0.00 0.00 0.00 43 1030.8
20180421114328 45 312 1.0 3.0 0.00 0.00 0.00 43 1031.0
20180421114228 44 317 1.0 3.0 0.00 0.00 0.00 44 1030.9
20180421114029 44 334 1.0 3.0 0.00 0.00 0.00 44 1031.1
20180421113829 44 328 1.0 3.0 0.00 0.00 0.00 45 1030.8
20180421113628 44 319 1.0 3.0 0.00 0.00 0.00 45 1030.6
20180421113529 44 316 1.0 3.0 0.00 0.00 0.00 45 1030.8
20180421113128 44 301 1.0 3.0 0.00 0.00 0.00 45 1030.8
20180421112429 44 290 1.0 3.0 0.00 0.00 0.00 46 1030.6
20180421112329 44 297 0.0 3.0 0.00 0.00 0.00 47 1030.7
20180421112229 44 298 0.0 3.0 0.00 0.00 0.00 47 1030.6
20180421112128 43 319 1.0 5.0 0.00 0.00 0.00 47 1030.7
20180421112028 42 326 0.0 5.0 0.00 0.00 0.00 48 1030.7
20180421111728 42 309 2.0 5.0 0.00 0.00 0.00 48 1030.4
20180421111628 42 308 1.0 5.0 0.00 0.00 0.00 49 1030.4
20180421111529 42 312 0.0 5.0 0.00 0.00 0.00 49 1030.6
20180421111328 42 308 1.0 5.0 0.00 0.00 0.00 49 1030.6
20180421111128 41 293 3.0 5.0 0.00 0.00 0.00 48 1030.4
20180421111029 41 290 2.0 5.0 0.00 0.00 0.00 49 1030.5
20180421110829 42 298 1.0 5.0 0.00 0.00 0.00 49 1030.4
20180421110628 42 297 1.0 5.0 0.00 0.00 0.00 49 1030.4
20180421110329 41 310 2.0 5.0 0.00 0.00 0.00 50 1030.3
20180421110229 41 318 1.0 3.0 0.00 0.00 0.00 51 1030.4
20180421110129 41 318 2.0 3.0 0.00 0.00 0.00 52 1030.3
20180421110028 40 312 1.0 2.0 0.00 0.00 0.00 52 1030.4
20180421105928 40 315 0.0 2.0 0.00 0.00 0.00 52 1030.4
20180421105828 40 302 0.0 2.0 0.00 0.00 0.00 52 1030.2
20180421105128 40 308 0.0 3.0 0.00 0.00 0.00 51 1030.2
20180421105028 40 305 1.0 3.0 0.00 0.00 0.00 51 1030.1
20180421104929 41 312 0.0 3.0 0.00 0.00 0.00 51 1030.1
20180421104829 41 319 1.0 3.0 0.00 0.00 0.00 51 1030.1
20180421104428 41 310 1.0 4.0 0.00 0.00 0.00 50 1030.2
20180421104128 40 314 1.0 4.0 0.00 0.00 0.00 50 1030.3
20180421104029 41 317 1.0 4.0 0.00 0.00 0.00 50 1030.0
20180421103928 41 317 1.0 5.0 0.00 0.00 0.00 48 1030.2
20180421103829 41 322 1.0 5.0 0.00 0.00 0.00 48 1030.3
20180421103728 41 326 1.0 5.0 0.00 0.00 0.00 48 1030.2
20180421103628 41 332 2.0 5.0 0.00 0.00 0.00 48 1030.2
20180421103428 41 342 1.0 5.0 0.00 0.00 0.00 48 1030.2
20180421103329 41 339 2.0 5.0 0.00 0.00 0.00 49 1030.0
20180421103229 41 339 1.0 5.0 0.00 0.00 0.00 48 1030.1
20180421103028 41 343 1.0 5.0 0.00 0.00 0.00 48 1030.1
20180421102828 41 326 2.0 4.0 0.00 0.00 0.00 48 1030.2
20180421102728 41 313 1.0 4.0 0.00 0.00 0.00 48 1030.2
20180421102429 41 287 1.0 3.0 0.00 0.00 0.00 48 1030.4
20180421102329 41 291 1.0 3.0 0.00 0.00 0.00 48 1030.3
20180421102229 41 289 1.0 3.0 0.00 0.00 0.00 48 1030.2
20180421102128 41 277 1.0 3.0 0.00 0.00 0.00 48 1030.3
20180421101429 41 350 0.0 3.0 0.00 0.00 0.00 49 1030.3
20180421101329 41 353 0.0 3.0 0.00 0.00 0.00 49 1030.3
20180421101128 41 2 0.0 3.0 0.00 0.00 0.00 47 1030.4
20180421101028 41 2 0.0 3.0 0.00 0.00 0.00 47 1030.3
20180421100928 41 1 1.0 3.0 0.00 0.00 0.00 47 1030.4
20180421100828 42 355 0.0 3.0 0.00 0.00 0.00 47 1030.3
20180421100729 42 355 2.0 3.0 0.00 0.00 0.00 47 1030.6
20180421100428 42 346 2.0 3.0 0.00 0.00 0.00 47 1030.4
20180421095929 42 312 1.0 3.0 0.00 0.00 0.00 47 1030.4
20180421095829 42 311 1.0 3.0 0.00 0.00 0.00 47 1030.4
20180421095628 42 302 1.0 3.0 0.00 0.00 0.00 47 1030.4
20180421095528 42 309 2.0 3.0 0.00 0.00 0.00 47 1030.6
20180421095428 42 317 1.0 4.0 0.00 0.00 0.00 47 1030.5
20180421095329 42 323 1.0 4.0 0.00 0.00 0.00 47 1030.6
20180421095229 42 327 2.0 4.0 0.00 0.00 0.00 47 1030.5
20180421095129 42 330 1.0 4.0 0.00 0.00 0.00 46 1030.5
20180421094629 42 324 2.0 6.0 0.00 0.00 0.00 46 1030.6
20180421094529 42 314 3.0 6.0 0.00 0.00 0.00 47 1030.4
20180421094428 42 312 3.0 6.0 0.00 0.00 0.00 47 1030.5
20180421094328 42 301 0.0 6.0 0.00 0.00 0.00 47 1030.5
20180421094128 42 290 1.0 6.0 0.00 0.00 0.00 47 1030.5
20180421093929 42 275 0.0 3.0 0.00 0.00 0.00 47 1030.6
20180421093729 42 287 1.0 3.0 0.00 0.00 0.00 46 1030.5
20180421093628 42 298 1.0 3.0 0.00 0.00 0.00 47 1030.5
20180421093428 42 297 1.0 3.0 0.00 0.00 0.00 47 1030.5
20180421093229 42 338 1.0 3.0 0.00 0.00 0.00 47 1030.4
20180421093129 42 344 1.0 3.0 0.00 0.00 0.00 47 1030.5
20180421092928 42 23 1.0 3.0 0.00 0.00 0.00 47 1030.4
20180421092828 42 14 1.0 3.0 0.00 0.00 0.00 48 1030.5
20180421092728 42 355 1.0 3.0 0.00 0.00 0.00 48 1030.3
20180421092628 42 348 0.0 3.0 0.00 0.00 0.00 48 1030.4
20180421092429 42 334 1.0 3.0 0.00 0.00 0.00 48 1030.5
20180421092328 42 323 1.0 3.0 0.00 0.00 0.00 48 1030.2
20180421092228 42 306 1.0 2.0 0.00 0.00 0.00 48 1030.4
20180421091929 42 325 1.0 2.0 0.00 0.00 0.00 48 1030.3
20180421091728 42 304 1.0 2.0 0.00 0.00 0.00 48 1030.4
20180421091628 42 332 0.0 2.0 0.00 0.00 0.00 48 1030.4
20180421091428 42 120 0.0 2.0 0.00 0.00 0.00 49 1030.3
20180421091229 42 283 0.0 3.0 0.00 0.00 0.00 49 1030.3
20180421091129 42 250 0.0 3.0 0.00 0.00 0.00 49 1030.5
20180421090828 42 287 0.0 3.0 0.00 0.00 0.00 49 1030.3
20180421090728 42 298 0.0 3.0 0.00 0.00 0.00 49 1030.5
20180421090228 43 314 0.0 4.0 0.00 0.00 0.00 47 1030.6
20180421090128 43 321 1.0 4.0 0.00 0.00 0.00 47 1030.5
20180421085928 43 317 1.0 4.0 0.00 0.00 0.00 47 1030.4
20180421085828 43 310 1.0 4.0 0.00 0.00 0.00 47 1030.4
20180421085629 43 305 1.0 4.0 0.00 0.00 0.00 47 1030.4
20180421085529 43 301 3.0 5.0 0.00 0.00 0.00 48 1030.5
20180421085428 43 290 2.0 5.0 0.00 0.00 0.00 49 1030.5
20180421085328 43 288 1.0 5.0 0.00 0.00 0.00 48 1030.6
20180421085128 43 282 2.0 5.0 0.00 0.00 0.00 49 1030.5
20180421084828 43 285 1.0 5.0 0.00 0.00 0.00 50 1030.5
20180421084729 43 292 1.0 5.0 0.00 0.00 0.00 50 1030.5
20180421084628 43 310 1.0 5.0 0.00 0.00 0.00 50 1030.6
20180421084528 42 328 3.0 5.0 0.00 0.00 0.00 51 1030.5
20180421084328 43 324 0.0 5.0 0.00 0.00 0.00 50 1030.5
20180421084228 43 319 0.0 5.0 0.00 0.00 0.00 49 1030.4
20180421084029 42 325 2.0 5.0 0.00 0.00 0.00 50 1030.5
20180421083929 43 325 1.0 5.0 0.00 0.00 0.00 50 1030.4
20180421083829 43 321 1.0 5.0 0.00 0.00 0.00 49 1030.5
20180421083728 43 320 1.0 5.0 0.00 0.00 0.00 49 1030.7
20180421083628 43 316 1.0 5.0 0.00 0.00 0.00 49 1030.4
20180421083528 43 318 1.0 5.0 0.00 0.00 0.00 49 1030.7
20180421083428 43 325 1.0 5.0 0.00 0.00 0.00 49 1030.5
20180421083028 43 314 2.0 7.0 0.00 0.00 0.00 49 1030.7
20180421082928 43 319 2.0 7.0 0.00 0.00 0.00 49 1030.6
20180421082529 44 302 2.0 7.0 0.00 0.00 0.00 49 1030.6
20180421082228 43 301 3.0 7.0 0.00 0.00 0.00 50 1030.7
20180421082128 43 309 3.0 6.0 0.00 0.00 0.00 50 1030.6
20180421082028 43 305 3.0 5.0 0.00 0.00 0.00 51 1030.5
20180421081829 43 300 2.0 5.0 0.00 0.00 0.00 51 1030.8
20180421081729 43 305 3.0 5.0 0.00 0.00 0.00 51 1030.8
20180421081628 43 313 1.0 5.0 0.00 0.00 0.00 52 1030.7
20180421081528 43 315 1.0 5.0 0.00 0.00 0.00 51 1030.6
20180421081428 43 315 1.0 5.0 0.00 0.00 0.00 51 1030.7
20180421081028 43 315 1.0 5.0 0.00 0.00 0.00 53 1030.6
20180421080828 43 314 1.0 5.0 0.00 0.00 0.00 52 1030.7
20180421080728 43 313 3.0 5.0 0.00 0.00 0.00 52 1030.8
20180421080529 43 309 3.0 5.0 0.00 0.00 0.00 52 1030.6
20180421080128 43 299 3.0 5.0 0.00 0.00 0.00 52 1030.6
20180421075829 43 297 3.0 4.0 0.00 0.00 0.00 52 1030.7
20180421075728 43 295 1.0 4.0 0.00 0.00 0.00 53 1030.6
20180421075528 43 293 1.0 3.0 0.00 0.00 0.00 52 1030.6
20180421075328 43 286 1.0 3.0 0.00 0.00 0.00 54 1030.5
20180421075029 43 288 1.0 4.0 0.00 0.00 0.00 54 1030.4
20180421074929 42 287 1.0 4.0 0.00 0.00 0.00 54 1030.5
20180421074628 43 283 1.0 5.0 0.00 0.00 0.00 54 1030.6
20180421074428 43 286 1.0 5.0 0.00 0.00 0.00 53 1030.6
20180421074129 43 281 3.0 5.0 0.00 0.00 0.00 53 1030.7
20180421074029 43 280 1.0 5.0 0.00 0.00 0.00 53 1030.5
20180421073628 43 279 1.0 5.0 0.00 0.00 0.00 53 1030.5
20180421073128 43 295 1.0 5.0 0.00 0.00 0.00 54 1030.6
20180421072928 43 303 1.0 5.0 0.00 0.00 0.00 54 1030.7
20180421072728 43 300 2.0 5.0 0.00 0.00 0.00 53 1030.6
20180421072629 43 300 2.0 5.0 0.00 0.00 0.00 53 1030.5
20180421072529 43 292 3.0 5.0 0.00 0.00 0.00 53 1030.6
20180421072428 43 290 2.0 5.0 0.00 0.00 0.00 52 1030.7
20180421072228 43 277 2.0 5.0 0.00 0.00 0.00 53 1030.4
20180421071928 43 270 1.0 5.0 0.00 0.00 0.00 52 1030.4
20180421071629 43 270 1.0 3.0 0.00 0.00 0.00 52 1030.5
20180421071528 43 270 2.0 3.0 0.00 0.00 0.00 52 1030.4
20180421071328 43 270 1.0 3.0 0.00 0.00 0.00 53 1030.3
20180421070929 43 267 1.0 3.0 0.00 0.00 0.00 52 1030.4
20180421070528 43 267 1.0 3.0 0.00 0.00 0.00 52 1030.4
20180421070329 43 267 1.0 3.0 0.00 0.00 0.00 52 1030.3
20180421070228 43 267 1.0 3.0 0.00 0.00 0.00 52 1030.3
20180421070128 43 268 1.0 5.0 0.00 0.00 0.00 52 1030.4
20180421065928 44 270 1.0 5.0 0.00 0.00 0.00 51 1030.4
20180421065829 44 270 2.0 5.0 0.00 0.00 0.00 51 1030.4
20180421065729 44 270 1.0 5.0 0.00 0.00 0.00 51 1030.3
20180421065528 44 273 1.0 5.0 0.00 0.00 0.00 50 1030.3
20180421064928 44 273 1.0 5.0 0.00 0.00 0.00 50 1030.3
20180421064528 44 274 1.0 5.0 0.00 0.00 0.00 49 1030.4
20180421064428 44 275 1.0 5.0 0.00 0.00 0.00 49 1030.4
20180421064328 44 276 2.0 5.0 0.00 0.00 0.00 49 1030.2
20180421064028 44 277 1.0 3.0 0.00 0.00 0.00 48 1030.3
20180421063928 44 276 1.0 4.0 0.00 0.00 0.00 48 1030.3
20180421063828 44 273 1.0 4.0 0.00 0.00 0.00 48 1030.4
20180421063628 44 273 1.0 4.0 0.00 0.00 0.00 48 1030.2
20180421063529 44 273 1.0 4.0 0.00 0.00 0.00 47 1030.3
20180421063429 44 278 1.0 4.0 0.00 0.00 0.00 47 1030.4
20180421063228 45 280 1.0 4.0 0.00 0.00 0.00 46 1030.3
20180421062829 44 280 1.0 4.0 0.00 0.00 0.00 47 1030.2
20180421062728 45 280 1.0 4.0 0.00 0.00 0.00 46 1030.1
20180421062528 45 278 2.0 4.0 0.00 0.00 0.00 46 1030.1
20180421062428 45 273 3.0 4.0 0.00 0.00 0.00 46 1030.3
20180421062228 45 270 2.0 3.0 0.00 0.00 0.00 46 1030.1
20180421062129 45 268 2.0 3.0 0.00 0.00 0.00 46 1030.0
20180421061828 44 271 1.0 2.0 0.00 0.00 0.00 47 1030.1
20180421061728 44 272 1.0 2.0 0.00 0.00 0.00 47 1030.1
20180421061528 45 262 1.0 2.0 0.00 0.00 0.00 45 1030.3
20180421061128 45 242 1.0 2.0 0.00 0.00 0.00 45 1030.1
20180421060828 45 233 1.0 2.0 0.00 0.00 0.00 45 1030.3
20180421060628 45 239 1.0 2.0 0.00 0.00 0.00 44 1030.1
20180421060528 45 242 1.0 2.0 0.00 0.00 0.00 44 1030.2
20180421060428 45 252 1.0 3.0 0.00 0.00 0.00 44 1030.1
20180421060329 45 258 1.0 3.0 0.00 0.00 0.00 44 1030.5
20180421060128 45 269 1.0 3.0 0.00 0.00 0.00 44 1030.4
20180421055928 45 286 1.0 3.0 0.00 0.00 0.00 44 1030.3
20180421055728 46 286 1.0 3.0 0.00 0.00 0.00 44 1030.3
20180421055428 46 281 1.0 3.0 0.00 0.00 0.00 43 1030.4
20180421055328 46 279 1.0 3.0 0.00 0.00 0.00 43 1030.6
20180421055128 46 278 3.0 3.0 0.00 0.00 0.00 44 1030.4
20180421055029 46 270 1.0 2.0 0.00 0.00 0.00 44 1030.4
20180421054628 46 270 1.0 2.0 0.00 0.00 0.00 44 1030.4
20180421054328 46 270 1.0 3.0 0.00 0.00 0.00 44 1030.5
20180421054228 46 270 1.0 3.0 0.00 0.00 0.00 43 1030.4
20180421054128 46 270 1.0 3.0 0.00 0.00 0.00 43 1030.6
20180421053928 46 270 1.0 3.0 0.00 0.00 0.00 43 1030.5
20180421053828 46 270 1.0 3.0 0.00 0.00 0.00 43 1030.5
20180421053728 46 270 1.0 3.0 0.00 0.00 0.00 43 1030.4
20180421053629 46 273 1.0 3.0 0.00 0.00 0.00 43 1030.5
20180421053528 46 273 1.0 3.0 0.00 0.00 0.00 43 1030.4
20180421053428 46 273 1.0 3.0 0.00 0.00 0.00 43 1030.3
20180421053328 46 273 1.0 3.0 0.00 0.00 0.00 43 1030.4
20180421053228 46 273 1.0 3.0 0.00 0.00 0.00 43 1030.5
20180421053128 46 273 1.0 3.0 0.00 0.00 0.00 43 1030.4
20180421053029 46 273 1.0 3.0 0.00 0.00 0.00 43 1030.3
20180421052928 46 273 1.0 3.0 0.00 0.00 0.00 44 1030.4
20180421052829 46 273 1.0 3.0 0.00 0.00 0.00 44 1030.5
20180421052728 46 272 1.0 3.0 0.00 0.00 0.00 44 1030.4
20180421052628 46 273 2.0 3.0 0.00 0.00 0.00 45 1030.5
20180421052528 46 274 1.0 3.0 0.00 0.00 0.00 45 1030.4
20180421052428 46 274 1.0 3.0 0.00 0.00 0.00 43 1030.6
20180421052329 46 274 1.0 3.0 0.00 0.00 0.00 43 1030.4
20180421052228 46 274 1.0 3.0 0.00 0.00 0.00 43 1030.5
20180421052128 46 274 0.0 3.0 0.00 0.00 0.00 44 1030.6
20180421052028 47 274 0.0 3.0 0.00 0.00 0.00 44 1030.3
20180421051828 47 276 1.0 3.0 0.00 0.00 0.00 45 1030.4
20180421051729 47 277 2.0 3.0 0.00 0.00 0.00 44 1030.4
20180421051629 47 277 2.0 3.0 0.00 0.00 0.00 45 1030.4
20180421051528 47 276 1.0 3.0 0.00 0.00 0.00 44 1030.3
20180421051428 47 277 1.0 3.0 0.00 0.00 0.00 45 1030.3
20180421051228 47 277 1.0 3.0 0.00 0.00 0.00 45 1030.2
20180421051128 47 277 1.0 3.0 0.00 0.00 0.00 45 1030.2
20180421051029 47 277 1.0 3.0 0.00 0.00 0.00 45 1030.3
20180421050329 47 274 1.0 3.0 0.00 0.00 0.00 43 1030.1
20180421050228 47 278 1.0 3.0 0.00 0.00 0.00 43 1030.1
20180421045928 47 280 1.0 3.0 0.00 0.00 0.00 43 1030.1
20180421045828 47 276 1.0 3.0 0.00 0.00 0.00 42 1030.3
20180421045629 47 281 1.0 3.0 0.00 0.00 0.00 43 1030.2
20180421045428 47 286 1.0 3.0 0.00 0.00 0.00 43 1030.1
20180421045328 47 288 2.0 3.0 0.00 0.00 0.00 43 1030.1
20180421045228 47 289 1.0 3.0 0.00 0.00 0.00 43 1030.2
20180421045028 47 292 1.0 3.0 0.00 0.00 0.00 43 1030.0
20180421044928 47 287 1.0 3.0 0.00 0.00 0.00 43 1029.9
20180421044828 47 291 2.0 3.0 0.00 0.00 0.00 43 1030.1
20180421044728 47 289 1.0 3.0 0.00 0.00 0.00 43 1030.2
20180421044329 47 280 1.0 3.0 0.00 0.00 0.00 43 1030.1
20180421044229 47 286 1.0 3.0 0.00 0.00 0.00 43 1030.0
20180421044128 47 289 1.0 3.0 0.00 0.00 0.00 44 1030.1
20180421044028 47 293 1.0 3.0 0.00 0.00 0.00 44 1030.0
20180421043628 47 305 1.0 5.0 0.00 0.00 0.00 44 1029.8
20180421043328 48 318 2.0 5.0 0.00 0.00 0.00 44 1029.9
20180421043228 47 312 2.0 5.0 0.00 0.00 0.00 44 1029.7
20180421043128 48 319 1.0 5.0 0.00 0.00 0.00 44 1029.7
20180421042928 47 316 2.0 5.0 0.00 0.00 0.00 43 1029.7
20180421042629 48 299 1.0 5.0 0.00 0.00 0.00 43 1030.0
20180421042528 47 303 1.0 5.0 0.00 0.00 0.00 43 1029.8
20180421042428 48 310 0.0 5.0 0.00 0.00 0.00 43 1029.8
20180421041929 48 321 3.0 5.0 0.00 0.00 0.00 43 1029.7
20180421041828 48 327 2.0 5.0 0.00 0.00 0.00 43 1029.9
20180421041628 47 329 1.0 5.0 0.00 0.00 0.00 45 1029.9
20180421041428 47 297 0.0 5.0 0.00 0.00 0.00 45 1030.1
20180421041329 47 290 0.0 5.0 0.00 0.00 0.00 45 1030.1
20180421041228 48 284 1.0 5.0 0.00 0.00 0.00 45 1029.9
20180421040728 48 272 3.0 5.0 0.00 0.00 0.00 42 1029.9
20180421040529 48 281 3.0 5.0 0.00 0.00 0.00 42 1030.0
20180421040429 48 281 3.0 5.0 0.00 0.00 0.00 42 1030.1
20180421040329 48 282 3.0 5.0 0.00 0.00 0.00 42 1029.9
20180421040028 48 302 3.0 5.0 0.00 0.00 0.00 42 1030.0
20180421035928 49 310 2.0 5.0 0.00 0.00 0.00 42 1030.1
20180421035829 49 313 3.0 5.0 0.00 0.00 0.00 42 1030.2
20180421035628 48 318 2.0 4.0 0.00 0.00 0.00 45 1030.0
20180421035528 48 323 1.0 5.0 0.00 0.00 0.00 44 1030.0
20180421035228 48 325 2.0 5.0 0.00 0.00 0.00 45 1030.3
20180421035129 48 329 2.0 5.0 0.00 0.00 0.00 44 1030.2
20180421035028 48 324 2.0 5.0 0.00 0.00 0.00 44 1030.2
20180421034928 48 323 3.0 6.0 0.00 0.00 0.00 44 1030.0
20180421034828 48 327 1.0 6.0 0.00 0.00 0.00 43 1030.1
20180421034528 49 330 3.0 6.0 0.00 0.00 0.00 44 1030.2
20180421034128 49 328 1.0 6.0 0.00 0.00 0.00 43 1030.0
20180421034028 49 328 4.0 6.0 0.00 0.00 0.00 44 1030.1
20180421033928 49 325 2.0 4.0 0.00 0.00 0.00 44 1030.0
20180421033828 49 316 3.0 4.0 0.00 0.00 0.00 44 1030.2
20180421033728 49 315 1.0 4.0 0.00 0.00 0.00 43 1030.0
20180421033628 49 311 2.0 3.0 0.00 0.00 0.00 43 1030.0
20180421033528 49 307 2.0 3.0 0.00 0.00 0.00 43 1030.1
20180421033429 49 311 1.0 3.0 0.00 0.00 0.00 43 1030.0
20180421033228 49 314 1.0 3.0 0.00 0.00 0.00 42 1030.2
20180421033028 49 319 1.0 3.0 0.00 0.00 0.00 42 1030.2
20180421032727 49 320 1.0 3.0 0.00 0.00 0.00 43 1030.3
20180421032629 49 317 1.0 3.0 0.00 0.00 0.00 43 1030.3
20180421032528 49 318 1.0 3.0 0.00 0.00 0.00 43 1030.2
20180421032428 49 321 1.0 3.0 0.00 0.00 0.00 43 1030.2
20180421032328 49 322 2.0 3.0 0.00 0.00 0.00 43 1030.1
20180421032228 49 320 1.0 3.0 0.00 0.00 0.00 43 1030.2
20180421032128 49 319 2.0 3.0 0.00 0.00 0.00 43 1030.3
20180421031829 49 328 1.0 3.0 0.00 0.00 0.00 42 1030.4
20180421031728 49 336 1.0 3.0 0.00 0.00 0.00 42 1030.4
20180421031328 49 339 1.0 3.0 0.00 0.00 0.00 40 1030.4
20180421031228 49 345 1.0 3.0 0.00 0.00 0.00 40 1030.4
20180421030929 50 349 1.0 3.0 0.00 0.00 0.00 40 1030.2
20180421030728 49 342 1.0 3.0 0.00 0.00 0.00 40 1030.2
20180421030528 50 334 1.0 3.0 0.00 0.00 0.00 40 1030.3
20180421030328 50 330 1.0 3.0 0.00 0.00 0.00 40 1030.4
20180421030228 50 330 1.0 3.0 0.00 0.00 0.00 40 1030.5
20180421030129 50 326 1.0 3.0 0.00 0.00 0.00 40 1030.5
20180421025928 50 319 1.0 3.0 0.00 0.00 0.00 39 1030.3
20180421025628 50 326 1.0 3.0 0.00 0.00 0.00 41 1030.5
20180421025528 49 334 1.0 2.0 0.00 0.00 0.00 41 1030.4
20180421025428 49 353 0.0 1.0 0.00 0.00 0.00 41 1030.4
20180421025227 50 1 1.0 2.0 0.00 0.00 0.00 40 1030.4
20180421025128 49 1 0.0 2.0 0.00 0.00 0.00 40 1030.4
20180421025028 49 1 0.0 2.0 0.00 0.00 0.00 40 1030.6
20180421024928 50 1 0.0 2.0 0.00 0.00 0.00 40 1030.5
20180421024728 50 1 0.0 2.0 0.00 0.00 0.00 39 1030.5
20180421024629 50 1 0.0 2.0 0.00 0.00 0.00 39 1030.5
20180421024528 50 1 0.0 2.0 0.00 0.00 0.00 39 1030.6
20180421024328 50 352 0.0 3.0 0.00 0.00 0.00 38 1030.5
20180421024228 50 334 1.0 3.0 0.00 0.00 0.00 38 1030.3
20180421023628 51 312 1.0 5.0 0.00 0.00 0.00 36 1030.5
20180421023528 51 308 1.0 5.0 0.00 0.00 0.00 35 1030.7
20180421023428 51 302 1.0 5.0 0.00 0.00 0.00 35 1030.7
20180421022728 51 328 1.0 3.0 0.00 0.00 0.00 36 1030.5
20180421022428 51 330 1.0 3.0 0.00 0.00 0.00 36 1030.6
20180421022328 51 330 1.0 3.0 0.00 0.00 0.00 36 1030.5
20180421022128 51 330 1.0 3.0 0.00 0.00 0.00 36 1030.5
20180421022028 51 330 1.0 3.0 0.00 0.00 0.00 36 1030.3
20180421021828 51 328 2.0 3.0 0.00 0.00 0.00 36 1030.5
20180421021528 51 335 1.0 3.0 0.00 0.00 0.00 36 1030.4
20180421021428 51 341 1.0 3.0 0.00 0.00 0.00 36 1030.3
20180421021328 51 344 1.0 3.0 0.00 0.00 0.00 36 1030.4
20180421021228 51 350 1.0 3.0 0.00 0.00 0.00 37 1030.4
20180421021128 51 354 1.0 3.0 0.00 0.00 0.00 37 1030.4
20180421021029 51 1 2.0 3.0 0.00 0.00 0.00 38 1030.4
20180421020828 51 353 0.0 2.0 0.00 0.00 0.00 38 1030.4
20180421020628 51 348 1.0 2.0 0.00 0.00 0.00 36 1030.4
20180421020328 51 341 1.0 3.0 0.00 0.00 0.00 36 1030.4
20180421020128 51 339 1.0 3.0 0.00 0.00 0.00 36 1030.3
20180421015928 51 338 1.0 3.0 0.00 0.00 0.00 36 1030.4
20180421015729 51 340 1.0 3.0 0.00 0.00 0.00 36 1030.5
20180421015528 51 343 1.0 3.0 0.00 0.00 0.00 36 1030.3
20180421015428 51 347 1.0 3.0 0.00 0.00 0.00 36 1030.4
20180421015228 51 1 1.0 2.0 0.00 0.00 0.00 36 1030.4
20180421015029 51 1 0.0 3.0 0.00 0.00 0.00 36 1030.4
20180421014928 51 1 0.0 3.0 0.00 0.00 0.00 36 1030.3
20180421014828 51 355 0.0 3.0 0.00 0.00 0.00 36 1030.3
20180421014728 51 345 1.0 3.0 0.00 0.00 0.00 36 1030.3
20180421014428 51 331 0.0 3.0 0.00 0.00 0.00 36 1030.3
20180421014329 52 332 0.0 3.0 0.00 0.00 0.00 36 1030.3
20180421014228 52 331 0.0 3.0 0.00 0.00 0.00 34 1030.2
20180421014028 52 330 1.0 3.0 0.00 0.00 0.00 35 1030.3
20180421013928 52 326 1.0 3.0 0.00 0.00 0.00 34 1030.3
20180421013828 52 325 1.0 3.0 0.00 0.00 0.00 35 1030.3
20180421013428 52 342 1.0 3.0 0.00 0.00 0.00 35 1030.2
20180421013328 52 344 1.0 3.0 0.00 0.00 0.00 36 1030.1
20180421012628 52 359 1.0 2.0 0.00 0.00 0.00 35 1029.9
20180421012528 52 354 1.0 2.0 0.00 0.00 0.00 35 1030.1
20180421012028 52 343 1.0 2.0 0.00 0.00 0.00 35 1030.1
20180421011928 52 330 1.0 2.0 0.00 0.00 0.00 35 1030.3
20180421011728 52 318 0.0 1.0 0.00 0.00 0.00 37 1030.3
20180421011328 51 353 0.0 3.0 0.00 0.00 0.00 36 1030.4
20180421011228 52 353 0.0 3.0 0.00 0.00 0.00 37 1030.2
20180421011128 52 343 0.0 3.0 0.00 0.00 0.00 36 1030.2
20180421011028 52 344 0.0 3.0 0.00 0.00 0.00 36 1030.2
20180421010929 52 350 0.0 3.0 0.00 0.00 0.00 36 1030.3
20180421010828 52 349 0.0 3.0 0.00 0.00 0.00 35 1030.3
20180421010728 52 349 0.0 3.0 0.00 0.00 0.00 35 1030.1
20180421010528 52 349 0.0 3.0 0.00 0.00 0.00 35 1030.0
20180421010028 52 1 0.0 1.0 0.00 0.00 0.00 36 1030.2
20180421005628 52 309 0.0 2.0 0.00 0.00 0.00 34 1030.2
20180421005528 52 295 0.0 2.0 0.00 0.00 0.00 34 1030.3
20180421005428 52 297 0.0 2.0 0.00 0.00 0.00 34 1030.2
20180421005128 52 340 0.0 2.0 0.00 0.00 0.00 33 1030.2
20180421005028 52 344 0.0 2.0 0.00 0.00 0.00 33 1030.1
20180421004828 53 340 0.0 2.0 0.00 0.00 0.00 33 1030.0
20180421004728 53 340 0.0 2.0 0.00 0.00 0.00 33 1030.4
20180421004528 53 342 0.0 3.0 0.00 0.00 0.00 33 1030.4
20180421004428 53 341 1.0 3.0 0.00 0.00 0.00 33 1030.0
20180421004128 53 326 1.0 3.0 0.00 0.00 0.00 33 1030.2
20180421004028 53 324 1.0 3.0 0.00 0.00 0.00 32 1030.3
20180421003927 53 318 1.0 3.0 0.00 0.00 0.00 32 1030.1
20180421003828 53 313 1.0 3.0 0.00 0.00 0.00 32 1030.3
20180421003628 54 304 1.0 3.0 0.00 0.00 0.00 31 1030.3
20180421003528 54 301 1.0 3.0 0.00 0.00 0.00 30 1030.0
20180421003428 54 300 1.0 3.0 0.00 0.00 0.00 30 1030.2
20180421003128 53 302 1.0 3.0 0.00 0.00 0.00 31 1030.2
20180421003028 54 307 1.0 3.0 0.00 0.00 0.00 30 1030.0
20180421002928 54 316 1.0 3.0 0.00 0.00 0.00 29 1030.1
20180421002828 54 320 1.0 3.0 0.00 0.00 0.00 30 1030.3
20180421002628 54 325 1.0 3.0 0.00 0.00 0.00 31 1030.2
20180421002528 54 325 1.0 3.0 0.00 0.00 0.00 30 1030.2
20180421002328 54 322 1.0 3.0 0.00 0.00 0.00 31 1030.2
20180421002028 54 311 1.0 3.0 0.00 0.00 0.00 29 1030.2
20180421001828 54 303 2.0 3.0 0.00 0.00 0.00 30 1030.0
20180421001728 54 300 2.0 3.0 0.00 0.00 0.00 30 1030.0
20180421001528 54 305 1.0 3.0 0.00 0.00 0.00 29 1030.0
20180421001129 54 341 1.0 2.0 0.00 0.00 0.00 29 1030.1
20180421001028 54 347 1.0 2.0 0.00 0.00 0.00 29 1029.9
20180421000928 54 354 1.0 2.0 0.00 0.00 0.00 29 1030.2
20180421000728 54 352 1.0 5.0 0.00 0.00 0.00 29 1030.2
20180421000628 54 345 1.0 5.0 0.00 0.00 0.00 29 1030.0
20180421000528 54 340 1.0 5.0 0.00 0.00 0.00 29 1030.0
20180421000428 54 330 1.0 5.0 0.00 0.00 0.00 29 1030.0
20180421000328 54 324 1.0 5.0 0.00 0.00 0.00 29 1029.8
20180421000028 54 310 1.0 5.0 0.00 0.00 0.00 29 1030.1
20180420235728 54 301 3.0 5.0 0.00 0.00 0.00 29 1030.1
20180420235528 55 297 3.0 5.0 0.00 0.00 0.00 28 1029.9
20180420235428 55 300 2.0 5.0 0.00 0.00 0.00 29 1030.1
20180420235127 55 306 3.0 5.0 0.00 0.00 0.00 29 1029.8
20180420235028 55 303 1.0 5.0 0.00 0.00 0.00 28 1029.9
20180420234828 55 297 3.0 5.0 0.00 0.00 0.00 28 1030.0
20180420234728 55 299 2.0 5.0 0.00 0.00 0.00 28 1029.8
20180420234428 55 312 2.0 5.0 0.00 0.00 0.00 29 1030.0
20180420234327 55 322 3.0 5.0 0.00 0.00 0.00 28 1029.8
20180420234028 55 321 2.0 5.0 0.00 0.00 0.00 29 1030.0
20180420233828 55 332 3.0 5.0 0.00 0.00 0.00 29 1030.0
20180420233628 56 328 2.0 6.0 0.00 0.00 0.00 29 1030.0
20180420233128 56 326 2.0 7.0 0.00 0.00 0.00 29 1029.9
20180420232828 56 316 2.0 7.0 0.00 0.00 0.00 29 1029.9
20180420232627 56 306 4.0 7.0 0.00 0.00 0.00 28 1029.8
20180420232328 57 298 3.0 7.0 0.00 0.00 0.00 29 1030.0
20180420232128 57 289 1.0 5.0 0.00 0.00 0.00 28 1030.1
20180420232028 57 288 2.0 5.0 0.00 0.00 0.00 28 1030.1
20180420231928 57 289 3.0 5.0 0.00 0.00 0.00 28 1030.0
20180420231828 57 296 3.0 5.0 0.00 0.00 0.00 28 1030.1
20180420231727 58 293 3.0 5.0 0.00 0.00 0.00 28 1030.0
20180420231528 57 307 3.0 5.0 0.00 0.00 0.00 28 1030.2
20180420231328 58 299 3.0 5.0 0.00 0.00 0.00 27 1030.1
20180420231228 58 308 3.0 5.0 0.00 0.00 0.00 28 1030.1
20180420231128 58 312 1.0 5.0 0.00 0.00 0.00 27 1030.1
20180420230928 57 317 2.0 5.0 0.00 0.00 0.00 26 1030.1
20180420230828 58 313 3.0 7.0 0.00 0.00 0.00 27 1030.0
20180420230728 58 316 3.0 7.0 0.00 0.00 0.00 27 1030.2
20180420230628 58 310 3.0 7.0 0.00 0.00 0.00 27 1030.1
20180420230128 58 302 1.0 7.0 0.00 0.00 0.00 26 1030.2
20180420230027 57 302 2.0 7.0 0.00 0.00 0.00 26 1030.2
20180420225928 57 302 3.0 7.0 0.00 0.00 0.00 25 1030.1
20180420225728 58 302 3.0 6.0 0.00 0.00 0.00 26 1030.2
20180420225628 58 306 2.0 6.0 0.00 0.00 0.00 26 1030.1
20180420225528 59 310 2.0 7.0 0.00 0.00 0.00 26 1030.1
20180420225428 59 314 1.0 7.0 0.00 0.00 0.00 26 1030.1
20180420224928 58 337 3.0 7.0 0.00 0.00 0.00 25 1030.1
20180420224828 58 340 3.0 7.0 0.00 0.00 0.00 27 1030.0
20180420224628 58 343 3.0 7.0 0.00 0.00 0.00 25 1029.8
20180420224427 58 340 3.0 7.0 0.00 0.00 0.00 25 1030.1
20180420224328 59 332 5.0 7.0 0.00 0.00 0.00 24 1030.1
20180420223428 59 302 4.0 10.0 0.00 0.00 0.00 24 1030.3
20180420223228 59 309 2.0 10.0 0.00 0.00 0.00 24 1030.1
20180420223128 59 309 3.0 10.0 0.00 0.00 0.00 24 1030.1
20180420222828 59 301 3.0 10.0 0.00 0.00 0.00 23 1030.0
20180420222728 59 301 3.0 10.0 0.00 0.00 0.00 24 1030.0
20180420222528 60 292 4.0 8.0 0.00 0.00 0.00 24 1030.0
20180420222328 59 284 2.0 8.0 0.00 0.00 0.00 24 1030.1
20180420222228 60 284 4.0 8.0 0.00 0.00 0.00 25 1030.1
20180420221927 60 277 3.0 8.0 0.00 0.00 0.00 25 1030.2
20180420221828 59 280 2.0 8.0 0.00 0.00 0.00 24 1030.1
20180420221728 59 282 3.0 8.0 0.00 0.00 0.00 25 1030.2
20180420221528 60 279 4.0 8.0 0.00 0.00 0.00 24 1030.0
20180420221428 59 279 3.0 8.0 0.00 0.00 0.00 24 1030.1
20180420221128 59 276 3.0 8.0 0.00 0.00 0.00 24 1030.1
20180420221028 60 276 5.0 8.0 0.00 0.00 0.00 24 1030.2
20180420220728 60 278 4.0 8.0 0.00 0.00 0.00 23 1030.3
20180420220228 60 309 4.0 8.0 0.00 0.00 0.00 23 1030.1
20180420215928 59 328 3.0 8.0 0.00 0.00 0.00 23 1030.2
20180420215628 59 321 3.0 7.0 0.00 0.00 0.00 23 1030.2
20180420215428 60 303 4.0 6.0 0.00 0.00 0.00 23 1030.2
20180420215228 60 288 3.0 7.0 0.00 0.00 0.00 23 1030.0
20180420215128 61 285 4.0 7.0 0.00 0.00 0.00 23 1030.0
20180420215027 61 279 2.0 7.0 0.00 0.00 0.00 22 1030.2
20180420214927 61 273 3.0 7.0 0.00 0.00 0.00 22 1030.0
20180420214828 62 281 1.0 7.0 0.00 0.00 0.00 23 1030.4
20180420214728 62 289 1.0 7.0 0.00 0.00 0.00 26 1030.2
20180420214628 61 300 1.0 8.0 0.00 0.00 0.00 24 1030.3
20180420214428 60 303 5.0 8.0 0.00 0.00 0.00 23 1030.2
20180420214128 61 297 2.0 8.0 0.00 0.00 0.00 23 1030.1
20180420214028 60 291 2.0 8.0 0.00 0.00 0.00 23 1030.2
20180420213828 60 290 5.0 9.0 0.00 0.00 0.00 24 1030.2
20180420213728 60 290 4.0 9.0 0.00 0.00 0.00 24 1030.1
20180420213628 61 289 3.0 9.0 0.00 0.00 0.00 24 1030.0
20180420213228 59 299 4.0 9.0 0.00 0.00 0.00 23 1030.2
20180420212828 59 333 5.0 7.0 0.00 0.00 0.00 23 1030.2
20180420212528 60 306 3.0 6.0 0.00 0.00 0.00 24 1030.1
20180420212428 60 293 2.0 5.0 0.00 0.00 0.00 23 1030.2
20180420212328 60 299 3.0 5.0 0.00 0.00 0.00 23 1030.5
20180420212228 60 309 3.0 5.0 0.00 0.00 0.00 23 1030.3
20180420212128 60 319 3.0 5.0 0.00 0.00 0.00 23 1030.3
20180420211928 61 302 2.0 5.0 0.00 0.00 0.00 22 1030.3
20180420211828 62 305 3.0 5.0 0.00 0.00 0.00 22 1030.4
20180420211627 61 329 1.0 5.0 0.00 0.00 0.00 21 1030.1
20180420211428 61 335 3.0 7.0 0.00 0.00 0.00 22 1030.3
20180420211328 61 332 1.0 7.0 0.00 0.00 0.00 22 1030.3
20180420211128 60 315 3.0 7.0 0.00 0.00 0.00 22 1030.5
20180420211028 60 313 1.0 7.0 0.00 0.00 0.00 22 1030.2
20180420210928 60 323 2.0 7.0 0.00 0.00 0.00 23 1030.2
20180420210827 60 323 2.0 10.0 0.00 0.00 0.00 23 1030.4
20180420210428 60 306 4.0 10.0 0.00 0.00 0.00 22 1030.4
20180420210127 60 296 3.0 10.0 0.00 0.00 0.00 23 1030.3
20180420210028 59 296 3.0 10.0 0.00 0.00 0.00 22 1030.4
20180420205928 59 286 3.0 10.0 0.00 0.00 0.00 23 1030.3
20180420205828 60 284 5.0 10.0 0.00 0.00 0.00 23 1030.5
20180420205628 59 276 3.0 9.0 0.00 0.00 0.00 21 1030.3
20180420205327 61 259 5.0 7.0 0.00 0.00 0.00 22 1030.3
20180420205229 61 262 2.0 7.0 0.00 0.00 0.00 22 1030.5
20180420204928 60 264 4.0 7.0 0.00 0.00 0.00 20 1030.4
20180420204828 60 261 3.0 8.0 0.00 0.00 0.00 21 1030.3
20180420204728 60 261 1.0 8.0 0.00 0.00 0.00 20 1030.6
20180420204628 60 260 3.0 8.0 0.00 0.00 0.00 20 1030.5
20180420204528 59 259 4.0 8.0 0.00 0.00 0.00 21 1030.5
20180420204428 60 265 4.0 8.0 0.00 0.00 0.00 21 1030.4
20180420204328 60 269 3.0 8.0 0.00 0.00 0.00 21 1030.5
20180420204228 60 267 4.0 8.0 0.00 0.00 0.00 21 1030.6
20180420204128 59 261 2.0 8.0 0.00 0.00 0.00 21 1030.6
20180420204027 60 258 5.0 8.0 0.00 0.00 0.00 23 1030.5
20180420203927 61 259 5.0 8.0 0.00 0.00 0.00 22 1030.5
20180420203728 62 264 3.0 8.0 0.00 0.00 0.00 22 1030.7
20180420203428 60 291 2.0 9.0 0.00 0.00 0.00 21 1030.6
20180420203028 60 312 5.0 9.0 0.00 0.00 0.00 21 1030.5
20180420202928 59 317 3.0 9.0 0.00 0.00 0.00 20 1030.6
20180420202728 60 318 3.0 9.0 0.00 0.00 0.00 21 1030.7
20180420202528 59 310 3.0 9.0 0.00 0.00 0.00 21 1030.7
20180420202428 59 305 5.0 9.0 0.00 0.00 0.00 20 1030.7
20180420202228 58 307 5.0 10.0 0.00 0.00 0.00 21 1030.6
20180420202128 59 299 6.0 10.0 0.00 0.00 0.00 22 1030.7
20180420202027 60 299 5.0 10.0 0.00 0.00 0.00 22 1030.7
20180420201927 60 293 1.0 10.0 0.00 0.00 0.00 21 1030.7
20180420201828 60 287 3.0 10.0 0.00 0.00 0.00 22 1030.8
20180420201728 59 283 3.0 10.0 0.00 0.00 0.00 21 1030.7
20180420201628 59 270 6.0 10.0 0.00 0.00 0.00 21 1030.9
20180420201428 60 252 3.0 10.0 0.00 0.00 0.00 20 1030.8
20180420201128 61 198 4.0 7.0 0.00 0.00 0.00 22 1030.9
20180420201028 60 189 3.0 7.0 0.00 0.00 0.00 21 1030.7
20180420200628 60 189 2.0 5.0 0.00 0.00 0.00 23 1030.8
20180420200328 60 200 2.0 6.0 0.00 0.00 0.00 23 1030.8
20180420200228 60 209 2.0 7.0 0.00 0.00 0.00 23 1030.7
20180420195827 60 259 1.0 7.0 0.00 0.00 0.00 23 1030.6
20180420195728 60 259 2.0 7.0 0.00 0.00 0.00 23 1030.7
20180420195428 61 273 3.0 8.0 0.00 0.00 0.00 24 1031.0
20180420195328 59 280 3.0 8.0 0.00 0.00 0.00 22 1030.8
20180420195128 60 292 5.0 8.0 0.00 0.00 0.00 23 1030.6
20180420195028 59 303 3.0 8.0 0.00 0.00 0.00 23 1030.6
20180420194927 60 311 5.0 8.0 0.00 0.00 0.00 23 1030.9
20180420194828 60 320 5.0 8.0 0.00 0.00 0.00 24 1030.8
20180420194728 58 327 3.0 8.0 0.00 0.00 0.00 23 1030.7
20180420194628 59 333 5.0 8.0 0.00 0.00 0.00 24 1030.7
20180420194327 59 341 2.0 9.0 0.00 0.00 0.00 24 1030.7
20180420193928 59 335 3.0 9.0 0.00 0.00 0.00 23 1030.9
20180420193828 59 330 4.0 9.0 0.00 0.00 0.00 23 1030.9
20180420193628 59 320 3.0 9.0 0.00 0.00 0.00 23 1030.7
20180420193527 58 319 3.0 9.0 0.00 0.00 0.00 23 1030.9
20180420193428 58 319 4.0 9.0 0.00 0.00 0.00 24 1030.9
20180420193328 60 310 5.0 9.0 0.00 0.00 0.00 24 1030.9
20180420193228 59 310 3.0 9.0 0.00 0.00 0.00 23 1031.0
20180420193128 59 302 1.0 9.0 0.00 0.00 0.00 24 1030.9
20180420192928 57 293 2.0 9.0 0.00 0.00 0.00 23 1030.9
20180420192728 61 284 4.0 9.0 0.00 0.00 0.00 23 1030.9
20180420192628 60 288 1.0 8.0 0.00 0.00 0.00 22 1031.1
20180420192428 59 286 2.0 8.0 0.00 0.00 0.00 23 1031.0
20180420191927 60 321 6.0 9.0 0.00 0.00 0.00 24 1031.1
20180420191628 58 324 0.0 9.0 0.00 0.00 0.00 23 1031.2
20180420191428 59 322 6.0 9.0 0.00 0.00 0.00 24 1031.2
20180420191328 59 313 5.0 9.0 0.00 0.00 0.00 24 1031.1
20180420191228 59 315 5.0 9.0 0.00 0.00 0.00 23 1031.0
20180420191128 59 318 5.0 9.0 0.00 0.00 0.00 23 1031.2
20180420191027 59 313 5.0 8.0 0.00 0.00 0.00 23 1031.1
20180420190828 60 308 5.0 8.0 0.00 0.00 0.00 23 1031.2
20180420190728 59 298 3.0 8.0 0.00 0.00 0.00 22 1031.0
20180420190628 59 293 3.0 8.0 0.00 0.00 0.00 23 1031.2
20180420190327 60 261 4.0 6.0 0.00 0.00 0.00 23 1031.4
20180420190128 60 235 1.0 5.0 0.00 0.00 0.00 23 1031.2
20180420190028 59 230 1.0 5.0 0.00 0.00 0.00 21 1031.1
20180420185928 57 230 1.0 5.0 0.00 0.00 0.00 21 1031.1
20180420185727 59 234 3.0 5.0 0.00 0.00 0.00 24 1031.1